Vorticity
7 -1 -14 5 3 0 14 -2 -23 -26 5 -2 15 17 12 -3 -4 16 3 13 54 26 6 -3 5 25 10 26 20 19 12 20 19 6 7 9 12 8 11 31 -5 8 -3 27
17 35 35 23 22 28 19 9 9 11 0 11 16 20 5 12 8 23 31 8 42 23 17 20 2 21 24 14 6 12 5 14 13 10 11 14 7 23 -3 33 -15 26 5 3
18 -8 10 28 28 38 11 9 18 23 8 9 10 6 12 20 16 16 18 15 35 5 2 -0 13 36 13 11 8 7 13 19 12 10 14 7 5 20 -10 9 23 -1 2 4
2 24 7 -0 20 -8 7 28 25 12 5 8 8 22 7 27 19 16 22 20 17 20 22 12 20 14 15 7 10 8 27 14 8 13 19 12 13 6 15 5 3 12 5 7
4 7 -7 17 -7 7 5 24 -3 23 21 1 16 7 14 15 27 25 21 16 14 16 16 18 18 17 9 13 37 15 7 13 19 23 4 15 10 11 6 5 8 6 6 6
0 12 7 7 -3 -4 22 12 -10 35 5 10 19 14 5 12 15 21 21 17 15 17 22 16 14 16 33 18 9 12 11 16 21 8 12 18 13 6 4 6 5 10 9 10
4 2 16 9 6 4 16 -33 6 -1 4 4 17 15 6 5 31 20 9 5 13 7 21 21 13 12 18 9 40 43 13 23 17 16 6 7 5 5 9 9 7 9 8 8
22 4 25 3 5 3 -2 11 15 15 6 10 16 8 10 7 8 22 24 55 40 11 0 21 42 17 36 12 22 18 9 4 6 7 7 9 7 5 7 8 8 8 9 7
-2 29 -4 2 -0 7 9 18 25 10 13 13 18 19 -1 8 6 10 9 8 7 7 12 3 9 10 10 9 11 9 8 10 10 6 4 6 7 7 8 9 7 8 7 7
-3 31 12 5 -3 1 5 9 15 14 8 21 11 22 13 4 13 15 16 15 12 10 10 12 9 7 9 12 11 10 3 6 6 7 7 9 10 7 6 7 8 7 6 7
6 18 26 19 13 -3 1 2 9 10 16 35 10 11 7 3 0 1 7 5 5 10 7 7 7 5 2 0 5 8 9 8 7 8 7 6 5 7 7 7 6 6 7 8
-4 3 1 -2 -1 13 16 6 17 8 18 35 4 5 1 41 7 7 7 5 8 5 7 3 2 7 9 9 9 7 7 6 6 6 6 6 7 7 7 6 7 8 7 5
34 10 -2 -3 9 16 12 10 15 9 2 27 13 -1 5 -0 7 8 8 7 9 7 -0 12 6 5 8 7 6 6 6 6 6 6 8 8 7 7 7 8 8 5 4 7
7 7 15 15 3 -0 -1 -3 14 15 26 6 15 14 5 1 7 12 17 9 1 14 3 0 2 10 7 7 7 7 6 6 7 8 7 7 7 7 8 7 5 5 8 10
6 -2 4 3 -6 -4 12 11 -3 12 7 16 16 14 16 19 11 6 10 6 9 1 10 4 6 9 8 8 7 6 6 8 8 7 7 7 8 7 5 5 6 8 11 11
13 17 17 26 27 24 16 14 9 16 30 10 20 9 15 13 13 11 12 15 7 5 10 7 10 8 8 7 6 7 9 8 7 7 7 8 6 5 5 6 8 10 10 11
1 9 16 14 15 19 18 14 12 19 14 18 3 15 16 18 12 6 14 2 8 6 11 9 9 8 7 6 8 9 8 7 7 7 7 6 5 6 7 8 9 10 13 16
7 6 11 13 15 8 13 20 7 20 3 17 28 18 9 12 9 10 10 12 12 12 10 9 8 6 6 8 9 8 7 7 7 7 6 5 6 7 8 8 11 15 19 22
23 11 8 9 6 9 15 8 8 19 18 42 8 9 9 9 8 8 10 10 10 10 9 8 6 6 8 9 8 7 6 7 7 6 6 6 7 7 8 12 16 19 23 25
17 22 15 19 24 29 29 18 11 34 20 3 9 6 6 6 11 11 10 9 10 9 8 6 6 8 9 8 7 6 7 7 6 7 6 6 8 8 13 16 20 22 23 24
17 27 31 2 7 -2 13 26 24 10 7 4 2 7 12 14 13 9 8 10 10 9 7 6 8 9 8 7 7 7 7 6 7 7 7 7 9 13 15 19 20 22 26 28
-2 0 4 3 6 10 4 5 7 -2 6 6 6 6 9 8 9 10 10 12 9 7 5 7 8 8 8 7 6 7 6 6 7 6 7 8 12 14 18 18 22 26 28 24
6 11 3 -0 1 2 3 14 3 3 5 5 2 12 6 11 7 7 10 10 8 7 6 7 8 8 7 6 6 6 5 7 6 7 8 11 13 17 20 19 22 21 18 15
19 15 10 7 7 8 11 12 12 15 9 7 4 4 2 4 23 12 11 13 9 6 6 7 8 8 8 7 6 6 6 7 7 8 9 13 15 18 20 17 19 16 11 11
14 16 18 19 20 17 12 16 12 10 6 17 12 5 2 -3 25 6 7 7 7 6 6 8 8 8 7 6 6 6 7 7 8 9 11 14 17 19 18 16 15 12 12 10
12 11 15 15 15 16 16 13 11 13 10 9 21 9 3 -2 23 7 10 10 7 6 7 7 7 7 7 7 7 7 7 8 8 9 13 16 20 18 15 15 16 16 12 11
9 12 16 17 17 15 14 15 9 13 10 11 17 19 -3 3 34 7 8 8 8 8 7 5 7 7 7 7 7 7 8 8 9 11 15 18 20 17 14 16 18 15 13 12
Height
3020 3021 3022 3023 3024 3025 3023 3021 3021 3003 3007 3000 2999 2993 2989 2984 2979 2974 2969 2964 2961 2962 2965 2966 2970 2971 2973 2974 2976 2980 2985 2990 2996 3001 3008 3013 3018 3024 3027 3030 3033 3036 3038 3037
3016 3016 3016 3016 3017 3017 3017 3015 3012 3006 2996 2999 2993 2988 2984 2979 2973 2968 2963 2958 2955 2958 2960 2962 2965 2966 2967 2969 2973 2977 2982 2988 2993 2999 3005 3010 3015 3018 3021 3024 3028 3029 3029 3029
3013 3014 3014 3014 3010 3010 3011 3009 3007 3003 2999 2995 2989 2984 2979 2972 2968 2963 2959 2955 2953 2955 2957 2958 2960 2961 2964 2968 2971 2975 2979 2984 2989 2995 2999 3003 3007 3011 3016 3019 3020 3021 3024 3023
3013 3012 3012 3008 3008 3009 3007 3005 3001 2999 2995 2993 2987 2981 2975 2970 2964 2961 2957 2954 2953 2953 2956 2956 2957 2959 2963 2966 2969 2973 2977 2982 2985 2989 2993 2998 3004 3008 3011 3014 3018 3018 3020 3023
3014 3012 3009 3007 3007 3006 3003 3001 2998 2995 2992 2990 2985 2981 2976 2969 2963 2959 2956 2955 2955 2955 2955 2957 2958 2960 2963 2966 2969 2972 2975 2979 2983 2979 2993 2997 3001 3005 3008 3012 3014 3015 3016 3016
3013 3012 3009 3005 3004 3003 3000 2998 2996 2992 2989 2987 2984 2980 2976 2970 2966 2962 2957 2956 2955 2956 2958 2959 2959 2960 2962 2966 2966 2967 2973 2978 2984 2990 2996 3000 3002 3005 3009 3009 3010 3013 3013 3011
3012 3011 3005 3003 3003 3001 3001 3002 2994 2992 2989 2986 2984 2981 2977 2973 2968 2965 2962 2959 2959 2959 2961 2961 2963 2966 2966 2968 2970 2975 2982 2988 2993 2996 2997 2999 3001 3004 3005 3008 3009 3008 3007 3006
3008 3009 3005 3001 3001 3001 2999 2994 2991 2989 2987 2984 2982 2981 2978 2975 2973 2970 2967 2963 2960 2959 2961 2962 2964 2969 2972 2973 2979 2982 2987 2991 2995 2997 2999 3000 3001 3004 3006 3005 3005 3004 3002 2998
3002 2999 2999 2999 2998 2997 2995 2991 2988 2987 2984 2982 2980 2980 2979 2977 2976 2974 2972 2970 2969 2969 2969 2969 2971 2975 2977 2980 2984 2986 2990 2994 2998 2999 3000 3002 3004 3004 3004 3003 3002 2999 2996 2993
2998 2996 2996 2996 2996 2995 2993 2990 2988 2986 2984 2980 2979 2979 2980 2980 2978 2977 2976 2976 2976 2977 2977 2977 2979 2981 2985 2988 2990 2993 2996 2995 2996 2999 3001 3002 3003 3001 3000 2998 2996 2993 2990 2987
2995 2994 2994 2995 2994 2993 2992 2988 2986 2984 2982 2980 2980 2979 2979 2980 2981 2981 2981 2981 2981 2982 2982 2983 2984 2986 2989 2991 2993 2994 2995 2996 2998 3000 3000 2999 2998 2997 2995 2993 2991 2988 2984 2980
2991 2992 2992 2992 2992 2990 2988 2987 2984 2982 2980 2978 2979 2979 2980 2980 2981 2982 2983 2984 2984 2985 2986 2987 2989 2991 2993 2994 2994 2994 2995 2996 2997 2997 2997 2996 2995 2993 2991 2989 2986 2983 2978 2973
2987 2988 2988 2988 2988 2987 2986 2985 2983 2982 2980 2978 2979 2981 2981 2982 2983 2984 2984 2986 2987 2988 2990 2991 2992 2993 2993 2992 2993 2994 2995 2996 2997 2996 2995 2994 2993 2991 2988 2985 2981 2976 2970 2964
2981 2982 2982 2983 2984 2983 2983 2983 2981 2980 2979 2978 2979 2980 2981 2981 2983 2984 2985 2987 2989 2990 2991 2992 2992 2993 2993 2994 2995 2996 2997 2996 2996 2995 2994 2993 2991 2987 2984 2980 2974 2968 2961 2954
2977 2977 2978 2978 2978 2978 2978 2979 2978 2978 2977 2976 2977 2978 2980 2980 2981 2984 2986 2988 2989 2991 2992 2993 2994 2995 2996 2996 2997 2997 2997 2996 2995 2994 2992 2989 2986 2982 2977 2972 2966 2960 2954 2947
2971 2971 2972 2971 2971 2971 2972 2973 2974 2974 2974 2975 2976 2977 2978 2979 2982 2984 2987 2988 2990 2992 2993 2995 2995 2996 2996 2997 2997 2996 2995 2994 2993 2991 2988 2984 2980 2976 2971 2965 2959 2952 2945 2938
2967 2968 2967 2967 2967 2967 2967 2968 2970 2971 2971 2973 2974 2975 2976 2979 2982 2985 2987 2989 2990 2992 2993 2994 2995 2995 2996 2996 2995 2994 2993 2991 2989 2986 2983 2979 2975 2970 2964 2958 2951 2944 2936 2927
2961 2963 2963 2963 2963 2964 2965 2966 2967 2968 2969 2971 2972 2974 2977 2979 2982 2985 2987 2988 2989 2991 2992 2993 2994 2994 2994 2994 2993 2991 2990 2988 2985 2982 2979 2975 2970 2964 2957 2950 2942 2934 2926 2918
2956 2959 2960 2961 2961 2961 2962 2963 2964 2965 2967 2969 2972 2976 2978 2979 2981 2984 2986 2988 2989 2990 2991 2991 2992 2992 2992 2991 2990 2989 2987 2985 2981 2978 2974 2970 2964 2957 2950 2942 2934 2925 2917 2910
2954 2955 2957 2958 2958 2959 2959 2960 2962 2964 2967 2970 2973 2976 2978 2979 2980 2982 2984 2986 2987 2988 2989 2990 2990 2990 2989 2989 2987 2986 2984 2981 2978 2974 2970 2964 2958 2951 2943 2934 2926 2918 2911 2905
2954 2954 2956 2959 2960 2961 2961 2962 2964 2966 2969 2971 2973 2975 2977 2978 2980 2981 2983 2984 2985 2986 2987 2988 2988 2987 2987 2986 2984 2982 2980 2977 2974 2970 2964 2959 2952 2945 2937 2929 2921 2913 2907 2902
2955 2957 2958 2960 2961 2962 2962 2963 2965 2967 2969 2971 2973 2974 2976 2977 2979 2980 2981 2983 2983 2985 2985 2986 2985 2985 2984 2983 2981 2979 2976 2973 2969 2965 2959 2953 2946 2939 2932 2924 2918 2912 2907 2903
2955 2956 2957 2958 2959 2961 2962 2961 2962 2964 2967 2969 2971 2973 2974 2976 2977 2978 2980 2981 2982 2982 2983 2983 2983 2982 2981 2979 2977 2975 2972 2968 2964 2959 2954 2948 2941 2934 2928 2922 2917 2913 2908 2906
2952 2952 2953 2954 2955 2957 2958 2958 2960 2962 2964 2966 2968 2970 2971 2973 2974 2975 2977 2978 2979 2980 2980 2980 2979 2979 2978 2976 2974 2971 2967 2964 2959 2954 2949 2942 2936 2930 2925 2921 2917 2913 2909 2908
2950 2949 2949 2950 2951 2952 2953 2955 2957 2958 2960 2961 2963 2966 2967 2969 2971 2972 2973 2975 2976 2977 2977 2977 2976 2975 2974 2972 2969 2966 2963 2959 2955 2949 2943 2937 2932 2927 2923 2919 2916 2913 2910 2908
2946 2946 2946 2945 2946 2947 2948 2949 2952 2954 2955 2957 2958 2961 2962 2964 2966 2968 2970 2971 2972 2973 2973 2973 2972 2971 2970 2968 2965 2962 2959 2955 2949 2943 2938 2933 2928 2923 2920 2917 2914 2912 2910 2908
2943 2942 2942 2941 2941 2942 2944 2946 2947 2949 2951 2952 2954 2955 2958 2960 2961 2963 2966 2967 2968 2969 2970 2969 2968 2967 2965 2963 2960 2957 2954 2949 2943 2938 2933 2928 2923 2920 2916 2914 2911 2910 2908 2907